EW2785 Weather Reports


time (UTC)temp
C
wind
direction
speed
KPH
gust
KPH
rain 1hr
cm
rain 24hr
cm
rain mn
cm
humidity
%
barometer
mb
20260831083017 15 201 0.0 0.0 0.00 0.00 0.00 91 1019.1
20260831081516 15 201 0.0 0.0 0.00 0.00 0.00 91 1019.1
20260831080014 15 201 0.0 0.0 0.00 0.00 0.00 91 1019.0
20260831074513 15 201 0.0 0.0 0.00 0.00 0.00 91 1018.9
20260831073013 16 201 0.0 0.0 0.00 0.00 0.00 90 1018.8
20260831071523 16 201 0.0 0.0 0.00 0.00 0.00 90 1018.9
20260831070009 16 201 0.0 0.0 0.00 0.00 0.00 90 1018.7
20260831064507 16 201 0.0 0.0 0.00 0.00 0.00 90 1018.5
20260831063008 16 201 0.0 0.0 0.00 0.00 0.00 90 1018.3
20260831061503 16 201 0.0 0.0 0.00 0.00 0.00 90 1018.4
20260831060004 17 201 0.0 0.0 0.00 0.00 0.00 90 1018.6
20260831054501 17 201 0.0 0.0 0.00 0.00 0.00 90 1018.6
20260831053130 17 201 0.0 0.0 0.00 0.00 0.00 89 1018.6
20260831051557 17 201 0.0 0.0 0.00 0.00 0.00 90 1018.5
20260831050056 17 201 0.0 0.0 0.00 0.00 0.00 89 1018.5
20260831044639 17 201 0.0 0.0 0.00 0.00 0.00 89 1018.5
20260831043052 17 201 0.0 0.0 0.00 0.00 0.00 89 1018.4
20260831041600 17 201 0.0 1.6 0.00 0.00 0.00 89 1018.3
20260831040051 17 201 0.0 0.0 0.00 0.00 0.00 89 1018.3
20260831034552 18 201 0.0 0.0 0.00 0.00 0.00 88 1018.3
20260831033105 18 201 0.0 0.0 0.00 0.00 0.00 88 1018.1
20260831031552 18 201 0.0 1.6 0.00 0.00 0.00 88 1018.2
20260831030050 18 201 0.0 1.6 0.00 0.00 0.00 88 1018.2
20260831024549 18 201 0.0 0.0 0.00 0.00 0.00 87 1018.2
20260831023048 18 201 0.0 0.0 0.00 0.00 0.00 87 1018.1
20260831021548 18 201 0.0 0.0 0.00 0.00 0.00 86 1017.8
20260831020048 18 201 0.0 0.0 0.00 0.00 0.00 85 1018.1
20260831014549 18 201 0.0 0.0 0.00 0.00 0.00 85 1017.9
20260831013047 18 201 0.0 0.0 0.00 0.00 0.00 85 1017.7
20260831011554 19 201 0.0 0.0 0.00 0.00 0.00 84 1017.4
20260831010059 19 201 0.0 1.6 0.00 0.00 0.00 83 1017.3
20260831004545 20 201 0.0 0.0 0.00 0.00 0.00 83 1017.0
20260831003045 20 201 0.0 0.0 0.00 0.00 0.00 82 1016.9
20260831001545 20 201 0.0 3.2 0.00 0.00 0.00 81 1016.6
20260831000046 20 207 1.6 9.7 0.00 0.00 0.00 81 1016.4
20260830234543 20 200 0.0 12.9 0.00 0.00 0.00 81 1016.4
20260830233044 20 207 0.0 8.0 0.00 0.00 0.00 80 1016.2
20260830231543 20 216 3.2 11.3 0.00 0.00 0.00 80 1016.2
20260830230042 20 221 1.6 4.8 0.00 0.00 0.00 81 1016.2
20260830224542 20 126 0.0 4.8 0.00 0.00 0.00 80 1016.2
20260830223042 20 148 0.0 4.8 0.00 0.00 0.00 80 1016.0
20260830221541 20 163 0.0 1.6 0.00 0.00 0.00 79 1016.1
20260830220040 21 207 0.0 6.4 0.00 0.00 0.00 78 1016.1
20260830214540 21 215 0.0 3.2 0.00 0.00 0.00 76 1016.1
20260830213053 21 225 0.0 9.7 0.00 0.00 0.00 74 1015.9
20260830211540 22 230 1.6 8.0 0.00 0.00 0.00 72 1016.0
20260830210039 22 213 0.0 4.8 0.00 0.00 0.00 72 1015.9
20260830204542 22 203 0.0 4.8 0.00 0.00 0.00 70 1015.9
20260830203037 22 203 0.0 4.8 0.00 0.00 0.00 69 1015.9
20260830201536 22 203 1.6 4.8 0.00 0.00 0.00 67 1016.0
20260830200034 23 202 1.6 8.0 0.00 0.00 0.00 66 1016.1
20260830194535 23 207 0.0 4.8 0.00 0.00 0.00 65 1016.2
20260830193035 23 252 0.0 4.8 0.00 0.00 0.00 64 1016.3
20260830191535 23 198 1.6 8.0 0.00 0.00 0.00 65 1016.4
20260830190029 23 305 0.0 6.4 0.00 0.00 0.00 66 1016.7
20260830184537 23 175 1.6 3.2 0.00 0.00 0.00 64 1016.8
20260830183025 23 205 0.0 6.4 0.00 0.00 0.00 64 1016.9
20260830181522 23 299 1.6 6.4 0.00 0.00 0.00 67 1017.0
20260830180020 22 144 0.0 4.8 0.00 0.00 0.00 66 1017.2
20260830174518 22 34 0.0 6.4 0.00 0.00 0.00 68 1017.4
20260830173014 22 260 0.0 6.4 0.00 0.00 0.00 69 1017.8
20260830171511 21 348 1.6 4.8 0.00 0.00 0.00 70 1018.0
20260830170007 21 257 1.6 4.8 0.00 0.00 0.00 71 1018.2
20260830164505 21 307 1.6 4.8 0.00 0.00 0.00 72 1018.2
20260830163004 20 214 0.0 0.0 0.00 0.00 0.00 74 1018.4
20260830161504 20 213 0.0 3.2 0.00 0.00 0.00 73 1018.7
20260830160004 20 200 0.0 4.8 0.00 0.00 0.00 72 1018.8
20260830154503 20 203 0.0 3.2 0.00 0.00 0.00 73 1018.9
20260830153002 20 203 0.0 9.7 0.00 0.00 0.00 73 1019.0
20260830151502 20 194 3.2 8.0 0.00 0.00 0.00 73 1019.3
20260830150001 21 195 0.0 0.0 0.00 0.00 0.00 72 1018.2
20260830144557 21 195 0.0 3.2 0.00 0.00 0.00 71 1018.8
20260830143056 21 192 1.6 9.7 0.00 0.00 0.00 69 1019.1
20260830141556 20 135 1.6 12.9 0.00 0.00 0.00 72 1019.1
20260830140049 19 132 0.0 4.8 0.00 0.00 0.00 78 1019.3
20260830134546 18 188 0.0 4.8 0.00 0.00 0.00 85 1019.3
20260830133046 17 211 0.0 6.4 0.00 0.00 0.00 90 1019.5
20260830131538 16 205 0.0 3.2 0.00 0.00 0.00 92 1019.3
20260830130034 15 203 0.0 0.0 0.00 0.00 0.00 93 1019.6
20260830124530 15 203 0.0 0.0 0.00 0.00 0.00 93 1019.6
20260830123027 14 203 0.0 1.6 0.00 0.00 0.00 94 1019.6
20260830121524 13 203 0.0 3.2 0.00 0.00 0.00 94 1019.7
20260830120024 13 203 0.0 4.8 0.00 0.00 0.00 93 1019.8
20260830114518 12 203 0.0 1.6 0.00 0.00 0.00 93 1019.6
20260830113018 12 203 0.0 3.2 0.00 0.00 0.00 93 1019.9
20260830111516 12 203 0.0 1.6 0.00 0.00 0.00 93 1020.0
20260830110015 12 203 0.0 1.6 0.00 0.00 0.00 93 1020.0
20260830104514 11 202 0.0 1.6 0.00 0.00 0.00 93 1019.9
20260830103014 11 202 0.0 0.0 0.00 0.00 0.00 93 1020.1
20260830101533 11 202 0.0 0.0 0.00 0.00 0.00 93 1020.1
20260830100012 11 202 0.0 0.0 0.00 0.00 0.00 93 1020.0
20260830094612 11 202 0.0 0.0 0.00 0.00 0.00 93 1020.1
20260830093010 11 202 0.0 0.0 0.00 0.00 0.00 92 1020.1
20260830091511 11 202 0.0 0.0 0.00 0.00 0.00 92 1020.2
20260830090029 11 202 0.0 0.0 0.00 0.00 0.00 92 1020.2
20260830084521 11 202 0.0 0.0 0.00 0.00 0.00 92 1020.1